Dewpoint
62 54 55 52 48 39 33 35 33 32 36 42 42 45 44 51 52 55 52 50 50 60 68 68 72 70 71 73 71 71 71 71 72 72 72 71 69 68 71 72 71 71 71 71 71 71 71 71 71
48 45 49 48 42 35 33 35 34 39 42 44 44 45 44 54 58 59 56 52 53 61 66 65 71 71 72 73 73 70 72 71 71 70 70 70 72 70 69 72 71 71 70 70 70 70 70 70 69
54 46 44 42 34 32 34 36 38 42 44 42 44 45 46 56 58 57 57 52 54 60 64 69 71 72 74 73 71 72 71 71 70 69 69 69 69 70 70 69 71 71 70 70 70 69 69 69 69
43 38 43 39 33 35 36 39 41 41 44 42 42 44 58 60 58 59 53 51 54 58 61 71 72 72 74 71 72 72 71 70 69 69 69 70 70 69 69 69 69 70 70 70 69 69 70 70 70
36 36 37 38 32 36 37 40 41 43 43 43 42 44 54 60 59 56 53 50 52 53 64 65 72 73 71 71 72 71 71 69 68 69 69 69 70 69 69 69 69 69 69 69 69 69 69 69 69
32 35 38 37 34 36 39 40 41 39 41 45 43 44 55 61 57 54 50 47 48 51 57 65 71 73 74 72 72 71 70 69 68 69 69 69 69 69 69 68 68 68 68 68 67 67 67 67 68
33 32 33 30 34 37 37 40 39 41 41 42 44 45 55 57 55 52 49 45 47 49 53 57 62 71 72 73 72 71 70 69 69 70 69 69 69 69 69 69 68 68 67 67 66 66 67 67 66
35 32 31 29 37 35 38 35 39 37 45 45 44 43 53 55 56 52 47 44 46 47 52 54 58 63 66 67 72 72 71 70 69 69 69 68 67 67 68 70 68 68 67 67 67 67 66 66 64
35 30 33 33 37 35 37 31 36 42 43 45 47 47 53 56 57 54 48 44 44 46 49 52 55 59 60 60 67 71 71 70 69 68 68 68 60 62 63 68 68 67 67 67 67 66 66 66 68
33 30 33 35 33 28 24 23 24 31 41 46 51 53 56 57 54 53 51 46 42 44 47 50 55 55 56 57 64 62 62 63 64 63 64 64 61 63 60 64 66 65 66 66 66 66 66 67 59
32 30 31 33 27 24 22 20 24 26 35 39 48 53 57 56 54 51 51 48 43 44 47 48 55 58 54 55 61 58 59 61 63 65 65 64 60 59 59 61 61 62 64 58 60 60 58 58 55
26 30 31 29 25 23 24 23 24 30 39 41 48 53 55 55 52 50 50 49 45 45 48 49 55 58 59 55 58 57 57 59 60 63 65 64 62 62 61 58 60 60 59 59 57 56 58 59 58
22 25 30 31 28 24 24 24 31 32 41 46 50 52 52 52 52 50 50 50 46 44 49 51 55 62 62 61 58 58 57 57 59 60 64 62 62 64 62 62 60 60 58 59 59 57 59 59 59
17 18 25 30 29 25 23 23 32 38 43 48 51 50 50 50 50 49 49 47 48 45 48 51 53 62 62 63 62 60 60 59 59 59 61 65 63 66 64 64 63 61 60 59 58 58 59 60 58
14 15 19 26 25 25 24 26 30 41 43 48 50 50 50 50 48 50 48 47 48 45 48 54 56 58 65 66 64 60 58 57 57 58 64 66 68 69 68 63 63 62 62 64 64 64 60 58 55
11 14 16 26 25 24 25 26 36 38 39 42 48 51 50 50 47 49 48 46 48 48 50 55 51 55 64 67 64 60 57 57 57 58 59 64 66 68 68 64 63 64 65 64 63 62 60 58 57
10 6 16 21 24 22 25 28 31 31 35 41 46 50 50 50 50 51 50 49 51 55 56 58 58 53 61 68 64 66 68 60 58 57 59 64 64 65 68 65 64 68 64 65 64 66 64 61 60
6 5 14 22 20 23 26 25 22 22 27 33 42 47 50 52 52 53 52 53 54 57 61 63 63 66 66 64 67 60 60 60 60 59 58 62 61 63 68 65 68 67 64 64 67 69 67 69 66
7 7 12 20 22 22 26 27 22 26 32 36 39 44 48 51 54 54 54 53 55 58 64 68 68 73 68 61 61 61 58 59 59 59 64 64 63 62 69 64 66 68 67 68 72 72 71 69 69
8 10 12 18 20 22 24 25 23 32 41 47 48 48 48 50 53 55 55 55 56 58 64 68 70 73 72 66 66 63 63 59 58 59 65 65 63 63 66 69 66 69 63 72 71 73 72 69 72
13 12 12 14 18 19 21 22 26 36 43 49 51 52 52 53 53 55 56 56 56 57 62 66 71 73 74 73 69 70 68 66 60 60 59 62 63 63 67 69 70 70 70 64 74 73 69 68 71
13 8 7 7 12 14 20 17 24 38 46 46 48 50 51 54 54 55 56 58 59 59 60 65 71 74 74 76 71 73 66 64 61 62 61 63 64 65 65 69 69 72 67 71 74 74 73 70 67
12 10 10 9 10 12 11 15 19 39 44 46 48 50 54 55 56 57 57 60 60 60 61 63 68 73 72 72 74 69 70 64 63 62 70 71 70 68 66 67 69 72 67 74 74 73 72 70 70
12 12 14 14 8 8 12 10 13 36 45 48 49 53 57 58 59 60 62 64 64 64 63 64 63 65 68 69 69 71 70 70 65 67 66 63 63 64 70 70 69 71 73 73 73 72 71 72 71
13 17 15 13 9 9 17 12 43 48 48 48 50 56 57 58 59 60 61 63 65 65 64 65 65 64 64 64 65 66 68 69 69 68 65 66 67 69 71 71 72 73 71 70 71 71 69 68 67
15 20 13 18 12 9 20 16 43 50 51 50 55 56 56 57 58 60 62 64 65 65 66 66 67 67 67 67 67 67 68 65 67 70 69 68 68 68 68 68 68 68 69 69 69 66 67 64 62
15 18 19 20 21 16 19 47 49 50 49 52 55 56 56 56 57 59 61 63 64 65 66 66 67 68 68 69 69 70 69 69 68 69 70 67 68 66 68 68 68 67 66 65 63 62 61 61 60
19 19 19 18 24 19 20 37 35 47 49 52 55 56 57 57 57 58 60 62 63 64 65 66 66 66 67 67 68 67 68 68 68 69 68 68 68 67 66 65 64 63 62 61 62 60 60 59 58
16 21 22 23 20 16 15 24 42 47 48 51 56 57 58 57 57 57 57 58 59 61 63 64 65 66 66 67 68 68 67 68 68 66 65 65 66 65 63 61 60 58 58 57 57 57 57 55 55
19 22 25 18 25 21 28 37 43 47 48 56 57 58 58 58 56 56 56 57 58 60 61 63 64 64 65 65 66 66 65 64 62 62 64 64 63 63 61 60 59 57 57 58 58 57 56 56 56
Lifted_Index
3 3 1 -0 -1 -1 -1 -1 1 3 3 3 3 2 2 1 -0 0 2 5 4 2 1 1 1 1 0 -0 -0 0 -0 -0 -0 -0 -0 -0 0 1 0 -1 -1 -1 -2 -2 -2 -2 -2 -3 -3
3 3 1 -0 -1 -1 -1 -0 1 3 3 3 3 3 2 1 0 1 3 4 4 2 1 1 1 1 -0 -1 -0 -0 -0 -0 -0 0 0 0 0 0 0 -1 -1 -1 -1 -1 -2 -2 -2 -2 -2
3 2 1 -0 -1 -1 -1 -0 1 2 3 3 3 3 2 1 1 2 3 4 4 3 2 1 1 0 -1 -1 -0 -0 -0 0 0 1 1 1 1 0 0 -0 -1 -1 -1 -1 -1 -1 -2 -2 -2
3 2 1 -0 -1 -1 -1 0 1 2 3 3 4 3 2 1 1 3 4 5 5 3 2 1 1 -0 -1 -1 -1 -0 -0 1 1 1 1 1 1 1 1 0 -0 -1 -1 -1 -1 -1 -1 -1 -1
3 2 0 -1 -1 -1 0 1 2 2 3 4 4 3 2 1 2 4 5 5 5 4 3 2 0 -0 -1 -1 -1 -0 0 1 1 1 1 0 0 1 1 1 0 -0 -0 -0 0 -0 -0 -1 -1
2 1 -0 -1 -1 -1 0 1 2 2 2 3 4 3 2 2 3 4 6 6 6 5 4 2 1 -0 -1 -1 -1 -1 -0 1 1 1 1 0 0 0 0 1 1 0 0 0 1 1 1 0 -0
2 1 -0 -1 -1 -1 0 1 2 2 2 3 3 3 2 2 3 4 6 6 6 5 4 3 2 0 -1 -1 -1 -1 -0 0 1 0 1 1 1 0 0 0 0 1 1 1 1 1 1 1 1
2 1 -0 -1 -1 -0 0 1 2 2 2 2 3 2 2 2 2 4 5 6 6 6 5 4 3 1 0 -0 -1 -1 -1 0 0 0 1 1 1 1 1 1 1 1 1 1 1 1 1 1 1
2 1 -0 -1 -1 -0 1 1 2 2 2 1 2 2 1 1 2 3 4 6 6 6 5 4 3 2 1 1 0 -0 0 0 1 1 1 2 2 2 2 2 1 1 1 1 1 2 2 2 2
2 1 0 -0 0 1 1 1 2 2 1 0 1 1 1 1 1 2 3 5 6 6 5 4 3 2 2 1 1 1 1 1 1 1 1 1 2 2 2 2 2 2 2 2 2 2 2 2 2
3 2 1 1 2 2 2 1 2 2 1 -0 -0 -0 -0 1 1 2 3 4 5 6 5 4 3 2 2 2 1 1 2 1 1 1 1 1 1 2 2 2 2 2 2 3 3 3 3 2 2
3 3 2 2 2 2 2 2 2 2 1 -0 -0 -0 -0 0 1 2 3 4 5 6 5 4 3 2 2 2 1 1 1 1 1 0 -0 -0 0 1 1 1 1 1 1 2 2 2 2 2 2
4 3 2 2 2 2 2 2 1 1 -0 -1 -1 -1 -0 1 1 2 2 3 5 6 5 4 3 2 1 1 1 1 1 1 1 0 -0 -1 -1 -1 -0 -0 -0 0 0 1 1 1 1 1 1
4 4 3 2 2 2 2 1 1 -0 -1 -2 -2 -1 -0 0 1 2 2 3 4 5 5 4 3 2 1 0 0 1 1 1 1 0 -1 -1 -1 -2 -2 -2 -1 -1 -1 -1 -0 -0 -0 0 0
5 5 4 3 2 2 1 1 -0 -1 -2 -2 -3 -2 -1 0 1 2 3 3 4 5 5 4 3 2 1 -0 -0 -0 0 1 1 0 -1 -2 -2 -3 -3 -3 -3 -2 -2 -2 -2 -1 -1 -0 -0
5 5 3 2 2 1 1 0 -0 -1 -1 -2 -3 -3 -2 -1 1 2 3 3 4 4 4 3 3 2 0 -1 -1 -1 -0 0 0 -0 -1 -2 -3 -3 -4 -3 -3 -3 -3 -3 -3 -2 -1 -1 -0
5 4 2 1 1 1 1 -0 -0 -0 -1 -2 -3 -3 -3 -2 -1 1 2 2 2 2 2 2 1 1 -0 -1 -2 -1 -1 -0 -0 -1 -1 -2 -2 -3 -4 -4 -3 -3 -3 -3 -3 -3 -2 -1 -1
3 2 1 -0 0 1 0 -0 -0 0 0 -1 -2 -3 -3 -3 -2 -1 -0 0 0 0 -0 -1 -1 -1 -2 -2 -2 -2 -1 -1 -1 -1 -1 -2 -2 -3 -3 -4 -3 -4 -3 -4 -4 -4 -3 -2 -2
2 1 0 -0 0 1 0 -0 -0 0 0 -1 -2 -3 -4 -4 -3 -3 -2 -1 -1 -1 -2 -3 -4 -4 -4 -3 -3 -2 -2 -2 -2 -2 -2 -2 -2 -3 -3 -3 -3 -3 -3 -4 -4 -4 -4 -3 -3
3 2 1 0 1 2 1 -0 0 1 -0 -2 -3 -3 -4 -4 -4 -4 -3 -2 -2 -2 -3 -4 -5 -6 -6 -4 -4 -4 -3 -3 -2 -2 -2 -2 -2 -3 -3 -4 -4 -3 -3 -4 -4 -4 -4 -4 -4
4 3 2 1 1 2 1 0 0 1 -0 -2 -2 -3 -4 -4 -4 -4 -4 -4 -3 -3 -3 -4 -6 -7 -7 -6 -6 -5 -5 -4 -3 -3 -3 -3 -3 -3 -4 -4 -4 -4 -4 -4 -4 -4 -4 -4 -3
3 3 3 2 1 2 1 0 -0 -0 -0 -1 -1 -2 -3 -4 -4 -4 -5 -5 -4 -4 -4 -5 -6 -7 -8 -7 -7 -6 -6 -5 -4 -4 -4 -4 -4 -4 -4 -4 -5 -5 -4 -4 -4 -4 -4 -3 -3
3 3 3 3 2 1 1 0 -0 -1 -1 -1 -1 -1 -2 -3 -4 -4 -5 -5 -5 -5 -5 -5 -6 -7 -7 -7 -7 -7 -6 -6 -5 -5 -5 -5 -5 -5 -4 -4 -5 -5 -4 -5 -5 -5 -4 -3 -3
4 4 4 3 2 1 0 -1 -1 -2 -2 -1 -1 -2 -3 -3 -4 -4 -5 -5 -5 -5 -5 -5 -5 -5 -6 -6 -6 -6 -6 -6 -5 -5 -5 -5 -5 -5 -5 -5 -4 -5 -5 -5 -4 -4 -3 -3 -3
5 4 3 2 0 -0 -0 -1 -2 -3 -2 -2 -1 -2 -3 -3 -3 -4 -4 -5 -5 -5 -6 -6 -6 -5 -5 -5 -5 -5 -5 -5 -5 -5 -5 -5 -5 -5 -4 -4 -4 -4 -4 -4 -3 -3 -2 -1 -1
5 4 2 0 -0 -1 -1 -2 -3 -3 -3 -2 -2 -3 -3 -3 -3 -3 -4 -4 -4 -4 -5 -6 -6 -5 -5 -5 -4 -4 -5 -5 -5 -5 -5 -5 -4 -4 -4 -3 -3 -3 -3 -2 -2 -1 -0 0 1
4 3 2 0 -1 -1 -1 -2 -3 -3 -3 -3 -3 -3 -3 -3 -3 -3 -3 -4 -4 -4 -4 -5 -5 -5 -5 -5 -4 -4 -4 -4 -4 -5 -4 -4 -3 -3 -3 -2 -2 -1 -1 -0 0 1 2 3 3
3 3 2 0 -1 -1 -1 -2 -3 -3 -4 -4 -4 -3 -3 -3 -3 -3 -4 -4 -4 -4 -4 -4 -4 -4 -4 -4 -4 -4 -4 -4 -3 -3 -3 -3 -2 -2 -1 -1 -0 0 1 2 2 3 5 6 6
3 2 2 0 -1 -1 -1 -1 -2 -3 -4 -4 -4 -4 -4 -4 -4 -4 -4 -4 -4 -4 -3 -3 -3 -3 -3 -3 -3 -3 -3 -2 -2 -2 -2 -1 -1 -0 0 1 2 2 3 4 5 6 6 7 7
3 2 1 0 -1 -1 -1 -1 -2 -3 -4 -5 -4 -4 -4 -4 -4 -4 -4 -4 -4 -4 -3 -3 -3 -3 -3 -3 -2 -2 -2 -2 -1 -1 -1 -0 0 1 1 2 3 3 4 5 6 6 6 6 6